Location: Proctor
(47.8934°N, 114.3048°W)
Time: 21:26:01
(UTC+00:00)

Tiros 1 despin weight - Pass Details

Date: 29 June 2024
Orbit: 576 x 620 km, 48.2° (Epoch: 19 July)

Event Time Altitude Azimuth Distance (km) Brightness Sun altitude
Rises 23:53:30 0° 277° (W) 2,895 ? 34.8°
Reaches altitude 10° 23:57:42 10° 240° (WSW) 1,979 ? 34.1°
Maximum altitude 23:58:45 11° 226° (SW) 1,928 ? 33.9°
Drops below altitude 10° 23:59:48 10° 213° (SSW) 1,972 ? 33.7°
Sets 00:03:58 0° 175° (S) 2,861 ? 33.0°
